Dublin, VA

5:11 PM EST on December 08, 2019 (GMT -0500)
New River Valley

Weather History for KPSK - October, 2019

Change the Weather History Date:

Tuesday, October 29, 2019

  Actual Average (KBCB) Record (KBCB)
Temperature  
Mean Temperature 58 °F -  
Max Temperature 69 °F 63 °F 78 °F (2016)
Min Temperature 48 °F 35 °F 16 °F (1969)
Degree Days  
Heating Degree Days 6    
Growing Degree Days 8 (Base 50)    
Moisture  
Dew Point 54 °F    
Average Humidity 90    
Maximum Humidity 100    
Minimum Humidity 59    
Precipitation  
Precipitation 0.00 in - - ()
Sea Level Pressure  
Sea Level Pressure 30.25 in    
Wind  
Wind Speed 1 mph (East)    
Max Wind Speed 7 mph    
Max Gust Speed -    
Visibility 8 miles    
Events      
Averages and records for this station are not official NWS values.
T = Trace of Precipitation, MM = Missing Value Source: NWS Daily Summary

Daily Weather History Graph

Daily Weather History Graph

Search for Another Location

Airport or City:

Astronomy

Oct. 29, 2019 Rise Set
Actual Time 7:43 AM EDT 6:28 PM EDT
Civil Twilight 7:16 AM EDT 6:55 PM EDT
Nautical Twilight 6:46 AM EDT 7:25 PM EDT
Astronomical Twilight 6:16 AM EDT 7:56 PM EDT
Moon 9:14 AM EDT (10/29) 7:53 PM EDT (10/29)
Length of Visible Light 11h 38m
Length of Day
10h 44m
Waxing Crescent, 3% of the Moon is Illuminated
Oct 29
Waxing Crescent
Nov 4
First Quarter
Nov 12
Full
Nov 19
Last Quarter
Nov 26
New

Hourly Weather History & Observations

Time (EDT) Temp. Dew Point Humidity Pressure Visibility Wind Dir Wind Speed Gust Speed Precip Events Conditions
12:15 AM 52.7 °F 50.0 °F 91% 30.23 in 10.0 mi NE 3.5 mph - N/A   Scattered Clouds
12:35 AM 51.6 °F 49.5 °F 92% 30.23 in 10.0 mi Calm Calm - N/A   Clear
12:55 AM 51.1 °F 49.6 °F 95% 30.22 in 10.0 mi Calm Calm - N/A   Clear
1:15 AM 51.3 °F 49.6 °F 94% 30.21 in 10.0 mi Calm Calm - N/A   Clear
1:35 AM 49.5 °F 49.1 °F 99% 30.22 in 10.0 mi Calm Calm - N/A   Clear
1:55 AM 49.1 °F 48.7 °F 99% 30.22 in 10.0 mi Calm Calm - N/A   Scattered Clouds
2:15 AM 49.1 °F 48.9 °F 99% 30.22 in 10.0 mi Calm Calm - N/A   Clear
2:35 AM 49.1 °F 48.9 °F 99% 30.22 in 10.0 mi Calm Calm - N/A   Clear
2:55 AM 48.9 °F 48.7 °F 99% 30.22 in 10.0 mi Calm Calm - N/A   Scattered Clouds
3:15 AM 48.6 °F 48.6 °F 100% 30.21 in 10.0 mi Calm Calm - N/A   Scattered Clouds
3:35 AM 48.6 °F 48.6 °F 100% 30.21 in 10.0 mi Calm Calm - N/A   Mostly Cloudy
3:55 AM 49.6 °F 49.6 °F 100% 30.21 in 10.0 mi Calm Calm - N/A   Overcast
4:15 AM 50.5 °F 50.4 °F 99% 30.22 in 10.0 mi Calm Calm - N/A   Overcast
4:35 AM 51.4 °F 51.1 °F 99% 30.22 in 10.0 mi Calm Calm - N/A   Overcast
4:55 AM 51.6 °F 51.1 °F 98% 30.22 in 10.0 mi Calm Calm - N/A   Overcast
5:15 AM 52.2 °F 51.8 °F 99% 30.23 in 10.0 mi Calm Calm - N/A   Overcast
5:35 AM 52.5 °F 52.0 °F 98% 30.23 in 10.0 mi Calm Calm - N/A   Overcast
5:55 AM 53.1 °F 52.0 °F 96% 30.23 in 10.0 mi Calm Calm - N/A   Overcast
6:15 AM 52.9 °F 51.8 °F 96% 30.23 in 10.0 mi Calm Calm - N/A   Overcast
6:35 AM 53.1 °F 51.8 °F 95% 30.23 in 10.0 mi Calm Calm - N/A   Overcast
6:55 AM 53.2 °F 52.2 °F 96% 30.23 in 10.0 mi Calm Calm - N/A   Overcast
7:15 AM 53.2 °F 52.3 °F 97% 30.24 in 10.0 mi Calm Calm - N/A   Overcast
7:35 AM 53.6 °F 52.7 °F 97% 30.24 in 10.0 mi Calm Calm - N/A   Overcast
7:55 AM 53.6 °F 52.9 °F 97% 30.25 in 10.0 mi Calm Calm - N/A   Overcast
8:35 AM 54.5 °F 53.6 °F 97% 30.25 in 7.0 mi ENE 3.5 mph - N/A   Overcast
8:55 AM 54.5 °F 53.6 °F 97% 30.26 in 7.0 mi Calm Calm - N/A   Overcast
9:15 AM 54.9 °F 54.0 °F 97% 30.27 in 7.0 mi Calm Calm - N/A   Overcast
9:35 AM 55.4 °F 54.3 °F 96% 30.27 in 10.0 mi Calm Calm - N/A   Overcast
9:55 AM 55.6 °F 54.5 °F 96% 30.28 in 5.0 mi Calm Calm - N/A   Overcast
10:15 AM 55.9 °F 54.9 °F 96% 30.28 in 7.0 mi Calm Calm - N/A   Overcast
10:35 AM 56.5 °F 55.4 °F 96% 30.28 in 5.0 mi Calm Calm - N/A   Overcast
11:15 AM 57.6 °F 55.8 °F 94% 30.29 in 5.0 mi Calm Calm - N/A   Overcast
11:35 AM 59.4 °F 56.8 °F 91% 30.29 in 7.0 mi Calm Calm - N/A   Overcast
11:55 AM 60.8 °F 57.4 °F 88% 30.29 in 7.0 mi NNE 3.5 mph - N/A   Overcast
12:15 PM 60.6 °F 57.4 °F 89% 30.28 in 10.0 mi North 3.5 mph - N/A   Overcast
12:35 PM 62.2 °F 58.3 °F 87% 30.27 in 10.0 mi ENE 3.5 mph - N/A   Overcast
12:55 PM 63.9 °F 58.6 °F 83% 30.27 in 10.0 mi Calm Calm - N/A   Mostly Cloudy
1:15 PM 63.5 °F 57.9 °F 82% 30.26 in 10.0 mi NNE 3.5 mph - N/A   Overcast
1:35 PM 64.4 °F 58.1 °F 80% 30.25 in 10.0 mi Calm Calm - N/A   Overcast
1:55 PM 66.2 °F 58.3 °F 76% 30.24 in 10.0 mi Calm Calm - N/A   Mostly Cloudy
2:15 PM 66.7 °F 58.1 °F 74% 30.24 in 10.0 mi Calm Calm - N/A   Mostly Cloudy
2:35 PM 66.9 °F 58.3 °F 74% 30.24 in 10.0 mi Calm Calm - N/A   Mostly Cloudy
2:55 PM 67.5 °F 57.6 °F 70% 30.23 in 10.0 mi ENE 3.5 mph - N/A   Mostly Cloudy
3:15 PM 68.2 °F 56.8 °F 67% 30.23 in 7.0 mi ENE 3.5 mph - N/A   Scattered Clouds
3:35 PM 68.7 °F 56.7 °F 65% 30.23 in 10.0 mi Calm Calm - N/A   Scattered Clouds
3:55 PM 69.6 °F 55.9 °F 62% 30.22 in 3.0 mi SSE 4.6 mph - N/A   Haze
4:15 PM 69.8 °F 55.0 °F 59% 30.23 in 10.0 mi South 3.5 mph - N/A   Clear
4:35 PM 69.8 °F 55.6 °F 61% 30.23 in 3.0 mi South 4.6 mph - N/A   Haze
4:55 PM 69.4 °F 55.4 °F 61% 30.23 in 7.0 mi East 4.6 mph - N/A   Scattered Clouds
5:15 PM 68.9 °F 55.0 °F 61% 30.23 in 5.0 mi SE 4.6 mph - N/A   Haze
5:35 PM 67.3 °F 56.7 °F 69% 30.23 in 4.0 mi SE 5.8 mph - N/A   Haze
5:55 PM 66.2 °F 56.8 °F 72% 30.24 in 2.5 mi SE 4.6 mph - N/A   Haze
6:15 PM 64.8 °F 56.7 °F 75% 30.24 in 4.0 mi Calm Calm - N/A   Haze
6:35 PM 63.0 °F 58.1 °F 84% 30.25 in 10.0 mi East 6.9 mph - N/A   Clear
6:55 PM 61.2 °F 57.6 °F 88% 30.25 in 10.0 mi East 3.5 mph - N/A   Clear
7:15 PM 59.9 °F 57.2 °F 91% 30.26 in 10.0 mi East 5.8 mph - N/A   Clear
7:35 PM 59.2 °F 57.0 °F 93% 30.26 in 7.0 mi Calm Calm - N/A   Clear
7:55 PM 58.1 °F 56.8 °F 96% 30.26 in 7.0 mi ENE 6.9 mph - N/A   Clear
8:15 PM 57.4 °F 56.7 °F 97% 30.27 in 7.0 mi Calm Calm - N/A   Clear
8:55 PM 56.8 °F 56.3 °F 98% 30.28 in 7.0 mi Calm Calm - N/A   Clear
9:15 PM 56.7 °F 56.3 °F 99% 30.28 in 2.0 mi Calm Calm - N/A   Scattered Clouds
9:35 PM 56.5 °F 56.3 °F 99% 30.28 in 2.5 mi Calm Calm - N/A   Mostly Cloudy
9:55 PM 57.0 °F 56.7 °F 99% 30.29 in 1.5 mi Calm Calm - N/A   Overcast
10:15 PM 57.2 °F 56.8 °F 99% 30.29 in 7.0 mi Calm Calm - N/A   Overcast
10:35 PM 57.2 °F 56.7 °F 98% 30.29 in 7.0 mi Calm Calm - N/A   Overcast
10:55 PM 57.2 °F 56.7 °F 98% 30.29 in 7.0 mi Calm Calm - N/A   Overcast
11:15 PM 57.2 °F 56.7 °F 98% 30.29 in 7.0 mi Calm Calm - N/A   Overcast
11:35 PM 56.7 °F 56.7 °F 100% 30.28 in 1.2 mi NE 3.5 mph - N/A   Overcast
11:55 PM 57.0 °F 56.8 °F 99% 30.28 in 1.5 mi Calm Calm - N/A   Overcast